period_start,C,m1,H,J0,J1,J2,J3,J4,J5,JA,JB,JC,JD,JJ,JK,JN,#
2018-03-30 00:02:38,0.11,4.85,0.00,25.45,27.87,30.89,13.78,48.29,1014.66,2020.99,1986.91,2021.36,2313.30,599.77,589.82,22.79,0000 0000 0000 0000 000000
2018-03-30 00:07:40,0.11,4.85,0.00,25.47,27.87,30.88,13.72,48.31,1014.66,2020.99,1985.80,2020.56,2312.28,599.99,590.01,22.84,0000 0000 0000 0000 000000
2018-03-30 00:12:41,0.08,4.86,0.00,25.49,27.85,30.86,13.71,48.32,1014.66,2020.99,1984.71,2019.89,2311.35,599.79,589.95,22.89,0000 0000 0000 0000 000000
2018-03-30 00:17:42,0.11,4.87,0.00,25.49,27.85,30.86,13.74,48.23,1014.66,2020.99,1983.65,2019.02,2310.34,599.67,589.60,22.94,0000 0000 0000 0000 000000
2018-03-30 00:22:44,0.11,4.87,0.00,25.52,27.85,30.86,13.77,48.24,1014.66,2020.99,1982.54,2018.11,2309.27,599.93,589.71,22.99,0000 0000 0000 0000 000000
2018-03-30 00:27:45,0.10,4.87,0.00,25.53,27.83,30.87,13.78,48.35,1014.66,2020.99,1981.52,2017.44,2308.40,600.05,589.95,23.04,0000 0000 0000 0000 000000
2018-03-30 00:32:46,0.10,4.88,0.00,25.55,27.82,30.86,13.74,48.24,1014.66,2020.99,1980.36,2016.67,2307.44,600.04,589.76,23.09,0000 0000 0000 0000 000000
2018-03-30 00:37:47,0.08,4.89,0.00,25.56,27.82,30.82,13.74,48.23,1014.66,2020.99,1979.26,2015.99,2306.48,599.84,589.63,23.14,0000 0000 0000 0000 000000
2018-03-30 00:42:48,0.12,4.89,0.00,25.57,27.82,30.84,13.72,48.30,1014.67,2020.99,1978.02,2015.15,2305.49,599.78,589.55,23.19,0000 0000 0000 0000 000000
2018-03-30 00:47:49,0.13,4.90,0.00,25.59,27.82,30.83,13.73,48.28,1014.68,2020.99,1976.72,2014.16,2304.51,600.19,589.98,23.24,0000 0000 0000 0000 000000
2018-03-30 00:52:51,0.12,4.90,0.00,25.61,27.81,30.83,13.66,48.18,1014.80,2021.00,1975.47,2013.25,2303.42,599.92,589.67,23.29,0000 0000 0000 0000 000000
2018-03-30 00:57:53,0.11,4.91,0.00,25.62,27.81,30.83,13.69,48.33,1015.03,2021.00,1974.24,2012.42,2302.55,599.77,589.76,23.34,0000 0000 0000 0000 000000
2018-03-30 01:02:54,0.09,4.92,0.00,25.66,27.81,30.85,13.72,48.22,1015.00,2021.00,1973.13,2011.73,2301.62,599.99,589.84,23.39,0000 0000 0000 0000 000000
2018-03-30 01:07:55,0.10,4.92,0.00,25.68,27.82,30.84,13.76,48.43,1014.88,2021.02,1971.99,2010.92,2300.70,599.97,589.66,23.44,0000 0000 0000 0000 000000
2018-03-30 01:12:56,0.13,4.93,0.00,25.70,27.82,30.87,13.78,48.38,1014.91,2021.01,1970.69,2009.99,2299.59,599.97,589.54,23.49,0000 0000 0000 0000 000000
2018-03-30 01:17:57,0.12,4.93,0.00,25.71,27.82,30.87,13.79,48.48,1015.08,2021.00,1969.35,2009.02,2298.41,600.10,589.87,23.54,0000 0000 0000 0000 000000
2018-03-30 01:22:59,0.11,4.94,0.00,25.74,27.84,30.86,13.71,48.36,1015.15,2021.00,1968.12,2008.11,2297.40,600.02,589.74,23.59,0000 0000 0000 0000 000000
2018-03-30 01:28:00,0.11,4.95,0.00,25.77,27.85,30.86,13.82,48.42,1015.15,2021.00,1966.95,2007.25,2296.28,600.04,589.68,23.64,0000 0000 0000 0000 000000
2018-03-30 01:33:02,0.13,4.95,0.00,25.79,27.85,30.88,13.77,48.47,1015.15,2021.00,1965.71,2006.38,2295.27,600.25,589.81,23.69,0000 0000 0000 0000 000000
2018-03-30 01:38:03,0.11,4.96,0.00,25.80,27.86,30.89,13.74,48.20,1015.15,2021.00,1964.54,2005.56,2294.27,600.10,589.52,23.74,0000 0000 0000 0000 000000
2018-03-30 01:43:04,0.11,4.96,0.00,25.82,27.87,30.90,13.75,48.23,1015.15,2020.99,1963.33,2004.64,2293.12,600.12,589.73,23.79,0000 0000 0000 0000 000000
2018-03-30 01:48:06,0.10,4.97,0.00,25.85,27.88,30.91,13.74,48.16,1015.16,2020.99,1962.14,2003.79,2292.00,599.95,589.38,23.84,0000 0000 0000 0000 000000
2018-03-30 01:53:07,0.11,4.98,0.00,25.88,27.90,30.92,13.77,48.14,1015.18,2020.97,1960.87,2002.90,2290.95,600.03,589.51,23.89,0000 0000 0000 0000 000000
2018-03-30 01:58:09,0.12,4.98,0.00,25.89,27.90,30.93,13.74,48.23,1015.26,2020.95,1959.63,2002.04,2289.90,600.08,589.56,23.94,0000 0000 0000 0000 000000
2018-03-30 02:03:10,0.11,4.99,0.00,25.92,27.91,30.92,13.69,48.17,1015.37,2020.93,1958.57,2001.20,2288.92,600.06,589.55,23.99,0000 0000 0000 0000 000000
2018-03-30 02:08:11,0.11,4.99,0.00,25.94,27.92,30.92,13.68,48.06,1015.57,2020.91,1957.48,2000.41,2287.98,599.86,589.33,24.04,0000 0000 0000 0000 000000
2018-03-30 02:13:12,0.09,5.00,0.00,25.90,27.92,30.93,13.62,48.33,1015.64,2020.90,1956.38,1999.76,2287.04,599.97,589.66,24.09,0000 0000 0000 0000 000000
2018-03-30 02:18:14,0.08,5.00,0.00,25.69,27.95,30.87,13.81,48.47,1015.64,2020.73,1955.24,1998.90,2286.06,600.09,590.16,24.14,0000 0000 0000 0000 000000
2018-03-30 02:23:15,0.09,5.01,0.00,25.62,27.95,30.84,13.79,48.44,1015.64,2020.57,1954.05,1998.05,2285.07,600.38,590.55,24.19,0000 0000 0000 0000 000000
2018-03-30 02:28:16,0.10,5.01,0.00,25.62,27.95,30.85,13.77,48.41,1015.65,2020.37,1952.91,1997.23,2284.05,599.99,590.26,24.24,0000 0000 0000 0000 000000
2018-03-30 02:33:17,0.11,5.02,0.00,25.63,27.97,30.86,13.78,48.40,1015.67,2020.32,1951.77,1996.47,2283.05,600.13,590.34,24.29,0000 0000 0000 0000 000000
2018-03-30 02:38:19,0.09,5.02,0.00,25.63,27.97,30.86,13.74,48.47,1015.82,2020.09,1950.54,1995.61,2282.01,599.99,590.35,24.34,0000 0000 0000 0000 000000
2018-03-30 02:43:20,0.10,5.03,0.00,25.65,28.00,30.85,13.73,48.48,1016.04,2020.04,1949.39,1994.79,2281.00,599.90,590.30,24.39,0000 0000 0000 0000 000000
2018-03-30 02:48:21,0.10,5.03,0.00,25.66,28.00,30.87,13.72,48.55,1016.13,2020.04,1948.21,1993.94,2279.99,599.86,590.41,24.44,0000 0000 0000 0000 000000
2018-03-30 02:53:23,0.11,5.04,0.00,25.68,28.02,30.88,13.77,48.73,1016.13,2020.01,1946.96,1993.06,2278.94,599.79,590.10,24.49,0000 0000 0000 0000 000000
2018-03-30 02:58:24,0.13,5.05,0.00,25.71,28.03,30.89,13.78,48.68,1016.14,2020.00,1945.71,1992.19,2277.88,599.97,590.27,24.54,0000 0000 0000 0000 000000
2018-03-30 03:03:25,0.12,5.05,0.00,25.75,28.05,30.91,13.83,48.71,1016.20,2020.00,1944.56,1991.31,2276.86,599.98,590.28,24.59,0000 0000 0000 0000 000000
2018-03-30 03:08:26,0.12,5.06,0.00,25.78,28.07,30.90,13.69,48.57,1016.45,2020.00,1943.37,1990.42,2275.79,599.96,590.24,24.64,0000 0000 0000 0000 000000
2018-03-30 03:13:28,0.11,5.06,0.00,25.80,28.09,30.93,13.75,48.56,1016.57,2020.00,1942.08,1989.56,2274.73,600.05,590.50,24.69,0000 0000 0000 0000 000000
2018-03-30 03:18:29,0.12,5.07,0.00,25.84,28.10,30.96,13.83,48.63,1016.62,2019.98,1940.83,1988.67,2273.62,599.90,590.28,24.74,0000 0000 0000 0000 000000
2018-03-30 03:23:31,0.12,5.08,0.00,25.88,28.12,30.98,13.78,48.68,1016.62,2019.97,1939.62,1987.77,2272.47,600.21,590.46,24.79,0000 0000 0000 0000 000000
2018-03-30 03:28:32,0.11,5.08,0.00,25.90,28.15,30.97,13.82,48.73,1016.63,2019.95,1938.33,1986.84,2271.49,600.39,590.71,24.84,0000 0000 0000 0000 000000
2018-03-30 03:33:33,0.08,5.09,0.00,25.94,28.16,31.00,13.84,48.91,1016.64,2019.77,1937.17,1985.89,2270.30,600.02,590.12,24.90,0000 0000 0000 0000 000000
2018-03-30 03:38:34,0.07,5.09,0.00,25.95,28.17,31.03,13.69,48.89,1016.65,2019.31,1935.82,1984.98,2269.15,599.93,590.15,24.95,0000 0000 0000 0000 000000
2018-03-30 03:43:36,0.11,5.10,0.00,25.96,28.20,31.05,13.84,48.88,1016.66,2019.09,1934.59,1984.07,2268.00,600.13,590.27,25.00,0000 0000 0000 0000 000000
2018-03-30 03:48:37,0.12,5.10,0.00,26.02,28.22,31.07,13.79,48.71,1016.81,2019.01,1933.24,1983.17,2266.84,599.87,590.09,25.05,0000 0000 0000 0000 000000
2018-03-30 03:53:38,0.13,5.11,0.00,26.04,28.24,31.10,13.73,48.77,1016.99,2019.02,1931.90,1982.34,2265.72,599.99,590.15,25.10,0000 0000 0000 0000 000000
2018-03-30 03:58:39,0.14,5.12,0.00,26.07,28.26,31.10,13.74,48.73,1017.06,2019.00,1930.63,1981.39,2264.60,600.10,590.14,25.15,0000 0000 0000 0000 000000
2018-03-30 04:03:41,0.12,5.12,0.00,26.10,28.28,31.14,13.73,48.66,1017.10,2019.00,1929.37,1980.47,2263.53,599.84,590.17,25.20,0000 0000 0000 0000 000000
2018-03-30 04:08:42,0.12,5.13,0.00,26.14,28.31,31.16,13.75,48.69,1017.10,2019.00,1928.07,1979.52,2262.34,599.95,589.97,25.25,0000 0000 0000 0000 000000
2018-03-30 04:13:43,0.13,5.14,0.00,26.17,28.33,31.21,13.81,48.67,1017.10,2018.99,1926.76,1978.58,2261.21,600.12,590.14,25.30,0000 0000 0000 0000 000000
2018-03-30 04:18:44,0.12,5.14,0.00,26.19,28.36,31.21,13.69,48.52,1017.14,2018.96,1925.43,1977.58,2260.00,600.16,590.17,25.35,0000 0000 0000 0000 000000
2018-03-30 04:23:46,0.13,5.15,0.00,26.23,28.38,31.24,13.75,48.58,1017.22,2018.94,1924.07,1976.59,2258.87,599.87,589.84,25.40,0000 0000 0000 0000 000000
2018-03-30 04:28:47,0.13,5.15,0.00,26.25,28.41,31.27,13.70,48.55,1017.51,2018.84,1922.67,1975.68,2257.69,600.13,590.23,25.45,0000 0000 0000 0000 000000
2018-03-30 04:33:48,0.06,5.16,0.00,26.27,28.43,31.26,13.71,48.61,1017.54,2018.34,1921.33,1974.63,2256.53,599.69,589.82,25.50,0000 0000 0000 0000 000000
2018-03-30 04:38:50,0.12,5.17,0.00,26.31,28.46,31.32,13.72,48.64,1017.59,2018.19,1919.96,1973.65,2255.39,600.15,590.23,25.55,0000 0000 0000 0000 000000
2018-03-30 04:43:51,0.13,5.17,0.00,26.34,28.49,31.33,13.76,48.56,1017.59,2018.05,1918.60,1972.61,2254.09,600.09,590.05,25.60,0000 0000 0000 0000 000000
2018-03-30 04:48:52,0.13,5.18,0.00,26.37,28.51,31.35,13.72,48.68,1017.60,2018.01,1917.18,1971.60,2252.83,599.93,589.84,25.65,0000 0000 0000 0000 000000
2018-03-30 04:53:53,0.14,5.19,0.00,26.40,28.54,31.40,13.75,48.74,1017.61,2018.00,1915.80,1970.59,2251.63,599.67,589.57,25.70,0000 0000 0000 0000 000000
2018-03-30 04:58:54,0.14,5.19,0.00,26.41,28.56,31.42,13.80,48.73,1017.65,2018.00,1914.44,1969.53,2250.41,600.02,589.87,25.75,0000 0000 0000 0000 000000
2018-03-30 05:03:56,0.14,5.20,0.00,26.42,28.59,31.43,13.76,48.65,1017.69,2018.00,1912.96,1968.51,2249.18,600.25,590.16,25.80,0000 0000 0000 0000 000000
2018-03-30 05:08:57,0.14,5.21,0.00,26.44,28.62,31.48,13.75,48.61,1017.86,2017.96,1911.56,1967.55,2247.96,600.25,589.91,25.85,0000 0000 0000 0000 000000
2018-03-30 05:13:58,0.14,5.21,0.00,26.46,28.64,31.50,13.75,48.59,1017.98,2017.91,1910.13,1966.46,2246.72,599.84,589.78,25.90,0000 0000 0000 0000 000000
2018-03-30 05:19:00,0.13,5.22,0.00,26.48,28.66,31.51,13.72,48.61,1018.07,2017.76,1908.69,1965.46,2245.54,600.04,590.00,25.95,0000 0000 0000 0000 000000
2018-03-30 05:24:01,0.07,5.23,0.00,26.49,28.69,31.55,13.73,48.48,1018.08,2017.40,1907.37,1964.54,2244.37,599.87,589.93,26.00,0000 0000 0000 0000 000000
2018-03-30 05:29:02,0.11,5.23,0.00,26.49,28.71,31.55,13.82,48.67,1018.09,2017.12,1905.88,1963.51,2243.12,599.91,589.85,26.05,0000 0000 0000 0000 000000
2018-03-30 05:34:03,0.14,5.24,0.00,26.52,28.73,31.59,13.70,48.57,1018.10,2017.02,1904.50,1962.47,2241.88,599.77,589.67,26.10,0000 0000 0000 0000 000000
2018-03-30 05:39:05,0.15,5.25,0.00,26.54,28.75,31.61,13.72,48.64,1018.18,2017.00,1903.02,1961.40,2240.61,600.11,589.97,26.15,0000 0000 0000 0000 000000
2018-03-30 05:44:06,0.14,5.25,0.00,26.57,28.77,31.64,13.75,48.58,1018.42,2017.00,1901.64,1960.38,2239.41,600.44,590.30,26.20,0000 0000 0000 0000 000000
2018-03-30 05:49:07,0.13,5.26,0.00,26.59,28.80,31.66,13.76,48.49,1018.51,2017.00,1900.23,1959.37,2238.34,599.97,589.98,26.25,0000 0000 0000 0000 000000
2018-03-30 05:54:09,0.14,5.27,0.00,26.60,28.81,31.67,13.72,48.63,1018.56,2017.00,1898.75,1958.39,2237.14,600.07,590.07,26.30,0000 0000 0000 0000 000000
2018-03-30 05:59:10,0.13,5.27,0.00,26.62,28.83,31.71,13.82,48.67,1018.57,2017.00,1897.43,1957.40,2235.93,600.05,590.00,26.35,0000 0000 0000 0000 000000
2018-03-30 06:04:11,0.14,5.28,0.00,26.64,28.85,31.72,13.69,48.43,1018.57,2016.96,1896.01,1956.36,2234.73,599.91,589.58,26.40,0000 0000 0000 0000 000000
2018-03-30 06:09:12,0.12,5.29,0.00,26.66,28.87,31.74,13.69,48.45,1018.57,2016.80,1894.63,1955.37,2233.58,600.16,589.93,26.45,0000 0000 0000 0000 000000
2018-03-30 06:14:13,0.08,5.29,0.00,26.69,28.90,31.77,13.81,48.51,1018.58,2016.40,1893.24,1954.39,2232.36,600.05,589.93,26.50,0000 0000 0000 0000 000000
2018-03-30 06:19:14,0.13,5.30,0.00,26.70,28.91,31.78,13.79,48.54,1018.70,2016.28,1891.78,1953.42,2231.24,600.03,589.91,26.55,0000 0000 0000 0000 000000
2018-03-30 06:24:16,0.14,5.31,0.00,26.73,28.92,31.79,13.79,48.65,1018.77,2016.17,1890.27,1952.37,2230.02,600.31,590.22,26.60,0000 0000 0000 0000 000000
2018-03-30 06:29:17,0.13,5.31,0.00,26.74,28.95,31.85,13.75,48.55,1018.90,2016.09,1888.78,1951.43,2228.80,600.03,589.92,26.65,0000 0000 0000 0000 000000
2018-03-30 06:34:19,0.14,5.32,0.00,26.76,28.96,31.86,13.72,48.50,1019.05,2016.00,1887.41,1950.27,2227.63,600.26,590.30,26.70,0000 0000 0000 0000 000000
2018-03-30 06:39:20,0.14,5.33,0.00,26.79,28.97,31.85,13.74,48.60,1019.06,2016.00,1885.95,1949.34,2226.49,599.94,590.03,26.75,0000 0000 0000 0000 000000
2018-03-30 06:44:21,0.14,5.33,0.00,26.80,29.00,31.89,13.74,48.52,1019.06,2016.00,1884.62,1948.37,2225.35,600.06,590.00,26.80,0000 0000 0000 0000 000000
2018-03-30 06:49:23,0.12,5.34,0.00,26.82,29.00,31.91,13.73,48.58,1019.07,2016.00,1883.37,1947.42,2224.24,599.86,589.74,26.85,0000 0000 0000 0000 000000
2018-03-30 06:54:24,0.14,5.35,0.00,26.82,29.02,31.92,13.75,48.51,1019.16,2016.00,1881.94,1946.46,2223.06,599.80,589.66,26.90,0000 0000 0000 0000 000000
2018-03-30 06:59:25,0.13,5.35,0.00,26.83,29.03,31.95,13.68,48.46,1019.50,2016.00,1880.64,1945.57,2221.92,599.69,589.86,26.95,0000 0000 0000 0000 000000
2018-03-30 07:04:26,0.13,5.36,0.00,26.84,29.05,31.96,13.72,48.51,1019.53,2016.00,1879.36,1944.56,2220.79,599.94,590.14,27.00,0000 0000 0000 0000 000000
2018-03-30 07:09:28,0.14,5.37,0.00,26.84,29.05,32.00,13.75,48.46,1019.55,2016.00,1877.91,1943.62,2219.66,600.11,590.14,27.05,0000 0000 0000 0000 000000
2018-03-30 07:14:29,0.12,5.37,0.00,26.86,29.07,31.98,13.76,48.47,1019.55,2015.99,1876.64,1942.72,2218.61,600.12,590.18,27.10,0000 0000 0000 0000 000000
2018-03-30 07:19:30,0.13,5.38,0.00,26.86,29.07,32.00,13.73,48.51,1019.48,2015.98,1875.36,1941.74,2217.47,599.97,589.94,27.15,0000 0000 0000 0000 000000
2018-03-30 07:24:31,0.12,5.39,0.00,26.85,29.09,32.02,13.66,48.48,1019.45,2015.98,1874.02,1940.78,2216.34,599.63,589.53,27.20,0000 0000 0000 0000 000000
2018-03-30 07:29:33,0.12,5.40,0.00,26.83,29.10,32.06,13.71,48.63,1019.53,2015.97,1872.74,1939.90,2215.29,599.77,589.98,27.25,0000 0000 0000 0000 000000
2018-03-30 07:34:34,0.12,5.40,0.00,26.82,29.10,32.01,13.73,48.48,1019.55,2015.96,1871.53,1939.00,2214.17,600.11,590.26,27.30,0000 0000 0000 0000 000000
2018-03-30 07:39:36,0.12,5.41,0.00,26.80,29.12,32.05,13.76,48.69,1019.53,2015.95,1870.26,1938.09,2213.13,599.87,590.21,27.35,0000 0000 0000 0000 000000
2018-03-30 07:44:37,0.13,5.42,0.00,26.77,29.12,32.05,13.66,48.71,1019.55,2015.94,1868.92,1937.16,2212.05,599.46,589.78,27.40,0000 0000 0000 0000 000000
2018-03-30 07:49:38,0.14,5.42,0.00,26.73,29.12,32.06,13.75,48.55,1019.60,2015.95,1867.65,1936.29,2211.02,599.74,589.94,27.45,0000 0000 0000 0000 000000
2018-03-30 07:54:39,0.13,5.43,0.00,26.70,29.14,32.09,13.72,48.53,1019.84,2015.95,1866.32,1935.40,2209.91,599.96,590.47,27.50,0000 0000 0000 0000 000000
2018-03-30 07:59:40,0.12,5.44,0.00,26.67,29.15,32.09,13.79,48.71,1019.81,2015.87,1864.94,1934.44,2208.80,600.02,590.67,27.55,0000 0000 0000 0000 000000
2018-03-30 08:04:42,0.13,5.44,0.00,26.66,29.15,32.09,13.80,48.56,1020.02,2015.78,1863.68,1933.51,2207.72,600.01,590.73,27.60,0000 0000 0000 0000 000000
2018-03-30 08:09:43,0.13,5.45,0.00,26.64,29.15,32.08,13.84,48.77,1020.03,2015.74,1862.39,1932.65,2206.66,600.22,591.08,27.65,0000 0000 0000 0000 000000
2018-03-30 08:14:44,0.11,5.45,0.00,26.62,29.15,32.06,13.79,48.69,1020.03,2015.85,1861.20,1931.83,2205.62,600.06,590.81,27.70,0000 0000 0000 0000 000000
2018-03-30 08:19:45,0.11,5.46,0.00,26.59,29.15,32.08,13.81,48.62,1020.03,2015.89,1860.03,1931.00,2204.69,600.05,590.92,27.75,0000 0000 0000 0000 000000
2018-03-30 08:24:47,0.10,5.47,0.00,26.58,29.15,32.09,13.79,48.67,1020.05,2015.80,1858.96,1930.15,2203.69,599.86,590.77,27.80,0000 0000 0000 0000 000000
2018-03-30 08:29:48,0.10,5.47,0.00,26.55,29.15,32.07,13.84,48.61,1020.09,2015.68,1857.93,1929.41,2202.73,600.06,591.09,27.85,0000 0000 0000 0000 000000
2018-03-30 08:34:49,0.10,5.48,0.00,26.56,29.15,32.07,13.79,48.52,1020.42,2015.69,1856.93,1928.74,2201.77,600.17,591.37,27.90,0000 0000 0000 0000 000000
2018-03-30 08:39:51,0.10,5.48,0.00,26.53,29.15,32.07,13.87,48.60,1020.52,2015.58,1855.92,1927.98,2200.87,600.37,591.48,27.95,0000 0000 0000 0000 000000
2018-03-30 08:44:52,0.11,5.49,0.00,26.54,29.15,32.07,13.78,48.60,1020.52,2015.61,1855.00,1927.14,2199.98,599.84,591.05,28.00,0000 0000 0000 0000 000000
2018-03-30 08:49:53,0.11,5.49,0.00,26.54,29.15,32.08,13.88,48.47,1020.53,2015.58,1854.02,1926.51,2199.08,600.14,591.43,28.05,0000 0000 0000 0000 000000
2018-03-30 08:54:55,0.05,5.50,0.00,26.52,29.14,32.05,13.80,48.58,1020.53,2015.33,1852.93,1925.84,2198.16,600.24,591.50,28.10,0000 0000 0000 0000 000000
2018-03-30 08:59:56,0.13,5.50,0.00,26.52,29.13,32.05,13.81,48.92,1020.53,2015.45,1851.90,1925.04,2197.22,599.99,591.28,28.15,0000 0000 0000 0000 000000
2018-03-30 09:04:58,0.12,5.51,0.00,26.48,29.12,32.06,13.85,48.66,1020.57,2015.49,1850.84,1924.37,2196.46,600.12,591.53,28.20,0000 0000 0000 0000 000000
2018-03-30 09:09:59,0.08,5.51,0.00,26.48,29.12,32.04,13.84,48.77,1020.75,2015.44,1849.76,1923.68,2195.59,600.40,591.91,28.25,0000 0000 0000 0000 000000
2018-03-30 09:15:00,0.12,5.52,0.00,26.43,29.12,32.06,13.77,48.72,1020.87,2015.43,1848.70,1922.87,2194.66,600.07,591.73,28.30,0000 0000 0000 0000 000000
2018-03-30 09:20:02,0.13,5.53,0.00,26.40,29.10,32.06,13.86,48.81,1021.01,2015.50,1847.65,1922.06,2193.59,599.99,592.00,28.35,0000 0000 0000 0000 000000
2018-03-30 09:25:03,0.13,5.53,0.00,26.37,29.10,32.03,13.79,48.81,1021.00,2015.70,1846.65,1921.42,2192.76,600.38,592.27,28.40,0000 0000 0000 0000 000000
2018-03-30 09:30:05,0.10,5.54,0.00,26.33,29.08,32.02,13.81,48.87,1020.98,2015.77,1845.54,1920.82,2191.89,599.97,591.92,28.45,0000 0000 0000 0000 000000
2018-03-30 09:35:06,0.09,5.54,0.00,26.27,29.07,32.02,13.78,49.02,1021.01,2015.71,1844.44,1920.05,2191.02,599.82,591.76,28.50,0000 0000 0000 0000 000000
2018-03-30 09:40:07,0.14,5.55,0.00,26.21,29.05,32.07,13.79,48.76,1020.99,2015.87,1843.48,1919.48,2190.13,599.86,592.03,28.55,0000 0000 0000 0000 000000
2018-03-30 09:45:08,0.11,5.56,0.00,26.16,29.04,32.04,13.83,48.98,1020.97,2015.92,1842.33,1918.79,2189.29,600.04,592.42,28.60,0000 0000 0000 0000 000000
2018-03-30 09:50:10,0.11,5.56,0.00,26.09,29.02,31.99,13.92,49.02,1021.01,2015.97,1841.27,1918.03,2188.39,600.21,592.67,28.65,0000 0000 0000 0000 000000
2018-03-30 09:55:11,0.11,5.57,0.00,26.02,29.00,32.03,13.94,48.92,1021.09,2015.99,1840.31,1917.44,2187.65,600.39,592.91,28.71,0000 0000 0000 0000 000000
2018-03-30 10:00:12,0.06,5.57,0.00,25.96,28.97,32.03,13.76,48.88,1021.50,2015.99,1839.38,1916.96,2186.87,599.78,592.72,28.76,0000 0000 0000 0000 000000
2018-03-30 10:05:14,0.11,5.58,0.00,25.89,28.95,32.06,13.84,48.83,1021.51,2015.99,1838.35,1916.12,2186.04,599.77,592.95,28.81,0000 0000 0000 0000 000000
2018-03-30 10:10:15,0.09,5.58,0.00,25.85,28.92,32.04,13.91,48.74,1021.50,2015.99,1837.42,1915.74,2185.23,600.15,593.26,28.86,0000 0000 0000 0000 000000
2018-03-30 10:15:16,0.09,5.59,0.00,25.77,28.89,32.00,13.90,48.73,1021.49,2015.99,1836.40,1915.03,2184.51,600.15,593.52,28.91,0000 0000 0000 0000 000000
2018-03-30 10:20:17,0.10,5.59,0.00,25.70,28.86,31.94,13.89,49.08,1021.42,2016.00,1835.40,1914.38,2183.80,600.16,593.48,28.96,0000 0000 0000 0000 000000
2018-03-30 10:25:19,0.09,5.60,0.00,25.64,28.82,31.87,13.93,48.83,1021.37,2016.08,1834.48,1913.98,2183.04,600.11,593.63,29.01,0000 0000 0000 0000 000000
2018-03-30 10:30:20,0.14,5.60,0.00,25.55,28.79,31.82,14.06,49.09,1021.50,2016.33,1833.67,1913.23,2182.33,600.32,594.03,29.06,0000 0000 0000 0000 000000
2018-03-30 10:35:21,0.11,5.61,0.00,25.45,28.75,31.77,13.97,49.11,1021.50,2016.81,1832.73,1912.93,2181.70,600.18,594.09,29.11,0000 0000 0000 0000 000000
2018-03-30 10:40:23,0.09,5.62,0.00,25.39,28.71,31.71,14.06,48.78,1021.50,2016.98,1831.89,1912.17,2181.01,600.62,594.76,29.16,0000 0000 0000 0000 000000
2018-03-30 10:45:24,0.07,5.62,0.00,25.33,28.66,31.69,13.91,48.69,1021.52,2016.99,1830.97,1911.96,2180.23,599.94,594.16,29.21,0000 0000 0000 0000 000000
2018-03-30 10:50:25,0.10,5.62,0.00,25.26,28.62,31.66,13.82,48.70,1021.52,2016.99,1830.06,1911.22,2179.75,599.80,594.21,29.26,0000 0000 0000 0000 000000
2018-03-30 10:55:27,0.06,5.63,0.00,25.19,28.57,31.58,13.98,48.70,1021.66,2017.00,1829.19,1910.95,2179.04,600.35,594.90,29.31,0000 0000 0000 0000 000000
2018-03-30 11:00:28,0.13,5.63,0.00,25.13,28.52,31.53,13.91,48.70,1021.96,2017.13,1828.25,1910.16,2178.41,599.82,594.67,29.36,0000 0000 0000 0000 000000
2018-03-30 11:05:29,0.16,5.64,0.00,25.06,28.47,31.48,14.00,48.68,1021.99,2017.73,1827.21,1909.82,2177.75,600.11,595.23,29.41,0000 0000 0000 0000 000000
2018-03-30 11:10:30,0.10,5.65,0.00,25.11,28.42,31.39,13.90,48.63,1021.99,2017.98,1826.15,1909.05,2176.97,599.67,594.69,29.46,0000 0000 0000 0000 000000
2018-03-30 11:15:32,0.11,5.65,0.00,25.20,28.38,31.26,13.81,48.81,1022.00,2017.99,1825.25,1908.55,2176.13,599.76,594.57,29.51,0000 0000 0000 0000 000000
2018-03-30 11:20:33,0.08,5.66,0.00,25.26,28.34,31.12,13.89,48.71,1022.01,2018.00,1824.35,1908.00,2175.46,600.07,594.72,29.56,0000 0000 0000 0000 000000
2018-03-30 11:25:35,0.10,5.66,0.00,25.31,28.31,31.14,13.90,48.59,1022.09,2018.05,1823.39,1907.34,2174.89,600.06,594.58,29.61,0000 0000 0000 0000 000000
2018-03-30 11:30:36,0.13,5.67,0.00,25.33,28.28,31.15,13.87,48.46,1022.13,2018.28,1822.34,1906.87,2174.05,600.54,595.10,29.66,0000 0000 0000 0000 000000
2018-03-30 11:35:37,0.18,5.68,0.00,25.36,28.25,31.14,13.87,48.62,1022.42,2018.84,1821.23,1906.06,2173.17,600.05,594.77,29.71,0000 0000 0000 0000 000000
2018-03-30 11:40:39,0.11,5.68,0.00,25.39,28.22,31.12,13.91,48.58,1022.43,2018.94,1820.37,1905.53,2172.42,600.12,594.77,29.76,0000 0000 0000 0000 000000
2018-03-30 11:45:40,0.07,5.69,0.00,25.39,28.20,31.11,13.90,48.69,1022.47,2018.97,1819.40,1904.96,2171.73,599.74,594.50,29.81,0000 0000 0000 0000 000000
2018-03-30 11:50:41,0.11,5.69,0.00,25.38,28.17,31.14,13.90,48.48,1022.48,2018.99,1818.42,1904.16,2170.90,599.76,594.37,29.86,0000 0000 0000 0000 000000
2018-03-30 11:55:42,0.07,5.70,0.00,25.37,28.16,31.13,13.90,48.37,1022.48,2018.99,1817.50,1903.88,2170.07,600.09,594.79,29.91,0000 0000 0000 0000 000000
2018-03-30 12:00:43,0.11,5.70,0.00,25.34,28.14,31.11,13.95,48.68,1022.32,2018.99,1816.61,1903.07,2169.41,600.23,594.84,29.96,0000 0000 0000 0000 000000
2018-03-30 12:05:45,0.08,5.71,0.00,25.34,28.12,31.11,13.97,48.73,1022.39,2018.99,1815.69,1902.67,2168.81,600.31,594.88,30.01,0000 0000 0000 0000 000000
2018-03-30 12:10:46,0.08,5.71,0.00,25.29,28.10,31.08,13.96,48.58,1022.31,2019.02,1814.77,1902.02,2168.04,599.85,594.74,30.06,0000 0000 0000 0000 000000
2018-03-30 12:15:47,0.11,5.72,0.00,25.21,28.07,31.08,13.90,48.61,1022.21,2019.09,1813.89,1901.56,2167.41,600.48,595.35,30.11,0000 0000 0000 0000 000000
2018-03-30 12:20:49,0.13,5.72,0.00,25.09,28.05,31.15,13.90,48.58,1022.41,2019.50,1812.94,1901.00,2166.77,600.09,595.38,30.16,0000 0000 0000 0000 000000
2018-03-30 12:25:50,0.14,5.73,0.00,24.99,28.03,30.93,13.95,48.77,1022.48,2019.86,1812.01,1900.37,2165.99,600.00,595.32,30.21,0000 0000 0000 0000 000000
2018-03-30 12:30:52,0.08,5.74,0.00,24.95,28.01,30.93,13.94,48.76,1022.48,2019.94,1811.08,1899.96,2165.20,599.64,595.16,30.26,0000 0000 0000 0000 000000
2018-03-30 12:35:53,0.12,5.74,0.00,24.92,28.00,30.96,13.90,48.54,1022.49,2019.96,1810.11,1899.12,2164.47,599.66,595.42,30.31,0000 0000 0000 0000 000000
2018-03-30 12:40:54,0.09,5.75,0.00,24.90,28.00,30.98,13.95,48.48,1022.48,2019.98,1809.16,1898.71,2163.76,599.90,595.50,30.36,0000 0000 0000 0000 000000
2018-03-30 12:45:55,0.08,5.75,0.00,24.90,28.00,30.99,13.91,48.50,1022.48,2019.98,1808.30,1898.01,2162.99,599.88,595.49,30.41,0000 0000 0000 0000 000000
2018-03-30 12:50:57,0.12,5.76,0.00,24.90,28.00,30.99,13.92,48.42,1022.48,2019.98,1807.33,1897.29,2162.14,600.30,595.95,30.46,0000 0000 0000 0000 000000
2018-03-30 12:55:58,0.07,5.76,0.00,24.92,28.01,31.01,13.92,48.38,1022.49,2019.96,1806.47,1896.89,2161.38,599.98,595.64,30.51,0000 0000 0000 0000 000000